Wind_Speed
14 14 14 14 13 12 13 13 13 14 14 14 14 14 14 15 16 16 15 16 17 17 16 16 16 16 15 14 14 13 13 13 13 14 15 14 15 15 15 14 15 15 14
16 16 16 14 15 15 14 14 15 15 15 15 15 15 15 16 16 17 16 17 18 17 17 16 16 16 15 15 14 14 14 14 14 14 15 15 15 15 15 15 15 15 14
18 17 16 16 16 14 14 15 16 16 16 16 16 16 16 17 17 17 17 17 18 18 17 16 17 16 15 15 15 14 15 15 15 15 15 15 15 16 15 15 15 15 15
19 19 18 18 17 17 16 15 16 17 17 17 16 17 17 17 18 18 18 19 18 17 17 17 16 16 15 14 15 15 16 16 16 16 16 16 16 15 15 15 15 15 15
18 19 19 19 19 18 18 16 16 17 17 17 17 17 17 18 19 18 19 19 18 18 17 17 16 15 14 15 16 16 16 16 16 16 16 16 15 15 15 15 15 16 16
19 20 20 21 20 20 20 19 18 18 18 18 17 17 18 19 19 19 19 20 19 18 17 17 16 16 15 15 16 16 16 16 16 16 16 16 16 16 16 16 16 16 16
21 21 21 21 22 22 21 20 19 18 19 19 18 18 19 19 20 20 20 21 19 19 18 17 16 16 16 16 16 16 16 16 15 15 15 16 16 17 16 16 16 16 17
21 21 21 22 22 21 21 20 20 19 19 19 18 19 19 20 20 21 21 21 20 20 20 18 17 17 17 17 17 17 17 17 16 16 16 16 17 17 17 17 18 18 18
21 21 21 21 21 21 21 21 21 20 20 20 20 20 20 21 21 21 21 21 21 21 20 18 18 18 17 17 17 17 17 17 17 17 16 16 17 17 18 18 19 19 19
22 22 22 22 21 21 22 22 22 22 21 21 21 22 22 22 22 22 22 22 21 21 21 19 19 19 19 18 19 18 17 17 17 17 17 17 17 18 19 19 20 20 21
23 23 22 22 23 23 23 23 23 23 23 22 23 23 24 24 23 22 22 22 22 22 21 20 20 20 20 20 19 19 18 18 18 17 17 18 18 18 19 19 20 20 21
24 24 24 24 25 24 24 24 24 24 24 24 24 24 24 24 23 23 23 23 23 23 22 21 21 21 20 20 20 19 19 19 19 19 18 18 18 19 19 20 20 20 21
25 25 25 26 25 25 24 24 24 25 25 25 24 25 25 25 25 25 25 25 25 24 24 22 21 20 19 19 19 19 19 19 19 19 19 19 19 20 20 21 20 20 20
28 28 28 27 26 25 25 25 25 25 25 25 25 25 25 25 25 25 26 26 26 25 24 22 21 19 19 18 19 19 20 20 20 20 20 20 20 20 20 20 21 21 21
29 29 28 27 26 26 26 26 26 25 25 25 25 25 24 25 25 25 25 25 25 25 23 22 21 20 19 19 20 20 20 20 21 20 20 20 21 20 20 20 20 20 20
30 30 29 27 26 26 27 27 27 26 26 25 24 24 24 25 25 25 25 25 25 24 23 23 22 21 21 20 21 21 21 21 21 20 20 20 21 20 20 20 20 19 19
30 29 29 27 27 27 27 27 26 26 26 25 24 25 25 25 25 25 25 25 25 24 24 24 23 23 22 22 22 22 22 21 21 21 21 21 21 20 20 19 19 18 19
30 30 30 29 28 27 27 27 26 26 25 25 25 25 25 25 25 24 24 24 25 24 25 25 24 23 23 23 23 22 22 22 22 21 21 20 20 19 19 18 18 18 18
29 29 29 29 29 28 28 27 26 26 26 26 26 26 26 26 25 25 24 24 25 25 25 24 24 24 23 23 23 22 22 22 22 22 21 20 20 19 19 18 18 18 18
29 28 28 28 27 27 27 27 26 26 26 26 27 27 28 27 27 26 26 25 25 25 25 24 23 23 23 23 23 22 22 22 22 21 20 20 19 19 19 19 19 19 19
29 28 27 27 27 27 28 27 27 27 27 27 27 28 28 28 28 28 27 27 26 25 25 24 23 23 23 22 23 23 22 22 22 21 20 19 18 18 19 20 19 19 20
29 28 28 28 27 27 28 28 28 28 28 28 29 28 28 28 28 28 27 26 25 25 25 24 24 24 23 23 22 23 22 21 21 20 18 18 18 18 19 19 18 19 19
28 28 28 29 27 27 27 27 27 28 29 29 29 29 28 28 27 26 26 25 24 24 24 24 24 24 24 23 23 22 22 21 21 20 19 19 19 19 18 18 18 18 19
27 27 27 28 28 28 28 27 27 28 28 29 29 28 27 26 26 26 25 25 24 24 24 24 24 24 23 22 22 22 22 21 21 20 20 19 19 18 18 18 18 18 18
27 27 28 28 29 29 28 28 28 28 28 28 27 26 26 26 26 26 25 25 24 24 24 24 24 23 22 22 22 22 22 21 21 21 21 20 20 20 19 19 19 19 19
28 28 28 27 28 28 27 27 27 27 27 27 26 26 25 25 25 25 25 25 24 23 23 23 22 21 21 21 21 21 21 22 22 22 22 22 21 21 20 20 20 20 20
Wind_Direction
279 284 288 293 295 297 298 300 302 304 306 308 312 315 319 321 323 323 318 318 317 315 311 310 306 304 301 297 295 290 287 286 287 285 283 280 277 275 272 272 274 272 269
276 281 288 293 296 294 295 297 298 302 305 306 308 312 314 316 318 320 319 317 314 310 311 310 306 304 301 295 292 291 288 288 288 289 285 281 280 278 276 273 271 271 270
275 277 287 291 292 293 295 296 295 298 301 303 305 309 310 312 315 317 317 315 312 310 308 308 307 305 304 297 292 292 292 289 288 288 285 282 281 278 277 274 274 272 271
278 282 287 288 289 291 293 294 294 297 298 299 300 303 306 308 310 312 315 315 313 314 312 308 307 306 305 297 295 293 292 291 289 287 285 282 280 278 275 272 274 273 271
276 280 283 286 288 288 290 291 293 295 296 295 296 300 305 307 308 312 316 316 312 310 311 310 309 307 304 299 295 294 293 293 291 289 285 282 281 278 276 274 272 272 271
274 276 279 284 286 284 285 287 287 289 290 291 293 296 301 304 307 310 312 313 309 308 309 309 306 304 303 302 299 296 293 294 292 291 288 283 280 278 276 276 273 273 272
274 277 279 280 281 281 282 286 287 287 287 288 290 293 298 302 304 306 308 310 308 306 307 306 304 303 301 300 299 298 295 294 294 291 288 285 281 279 278 278 275 274 273
276 278 279 279 279 279 281 283 285 285 284 285 286 289 293 296 300 303 306 307 306 304 303 301 301 299 298 298 297 297 296 295 294 291 288 286 284 280 278 277 276 275 274
277 278 278 278 276 278 279 280 281 281 282 281 283 287 291 293 296 300 302 305 304 303 302 300 298 297 295 297 297 297 297 295 292 290 289 288 284 280 278 277 277 277 275
275 276 277 278 277 278 278 278 278 279 280 279 280 283 287 289 292 296 300 303 304 303 300 298 297 295 293 295 296 296 296 297 294 291 287 285 283 283 280 278 279 278 277
272 273 274 275 277 277 277 278 278 278 279 278 279 281 284 287 290 293 297 300 304 303 300 298 296 295 292 292 294 296 295 295 295 294 291 287 283 282 282 281 281 280 279
270 271 273 273 275 277 278 278 278 278 277 278 279 280 282 285 288 290 294 297 300 302 301 301 297 295 293 291 292 294 296 295 294 293 291 289 286 282 284 284 283 283 284
273 271 272 273 274 275 276 277 278 278 279 278 279 280 282 283 285 289 291 295 298 299 301 300 298 296 295 295 295 295 295 295 294 294 292 288 287 286 284 284 285 285 285
273 272 272 273 274 274 275 277 278 279 280 279 279 281 281 282 285 288 289 291 295 296 298 297 296 295 295 295 296 297 297 294 294 294 293 290 288 287 285 284 284 285 286
273 272 272 274 275 274 275 276 277 278 280 279 279 279 280 281 283 285 287 289 291 292 293 292 292 293 293 293 295 296 297 297 295 294 293 291 291 289 287 285 284 285 287
273 273 272 274 274 276 276 275 276 277 280 279 278 280 280 280 282 283 285 287 288 289 289 289 290 290 290 291 294 296 296 296 295 293 292 293 290 289 287 285 283 285 287
272 271 271 273 274 275 276 276 275 276 278 279 279 281 281 281 281 282 284 286 286 286 286 287 286 287 287 288 291 293 296 297 296 294 292 293 290 288 285 283 281 283 286
270 270 271 270 273 275 276 276 275 274 275 277 277 280 282 282 282 282 282 283 284 285 284 284 284 284 285 286 289 293 294 295 295 293 293 293 290 286 284 284 282 282 284
271 271 272 272 272 273 274 274 274 275 276 277 277 278 281 281 281 281 282 282 285 285 284 283 282 283 283 285 288 290 293 293 293 293 293 293 289 286 284 285 285 284 284
271 272 272 272 272 274 275 275 275 276 275 276 277 278 280 280 280 280 281 282 284 285 283 281 281 283 284 285 286 288 290 290 290 291 291 291 289 288 285 287 288 286 286
271 270 270 269 270 272 272 273 274 274 275 275 278 279 280 278 278 278 279 281 281 281 283 283 282 282 282 284 285 286 287 288 288 288 289 289 290 289 288 290 289 288 288
268 270 269 269 270 271 271 272 273 274 275 275 276 277 279 278 277 277 278 279 279 280 282 281 281 282 281 281 283 285 286 287 286 284 284 287 289 290 291 291 291 292 291
269 269 270 269 269 271 273 273 273 274 275 275 276 276 278 277 277 276 277 277 278 279 280 280 280 281 281 281 281 283 284 285 285 282 282 287 291 291 290 291 292 292 290
268 269 270 269 269 271 272 273 273 274 274 275 275 275 276 276 276 275 275 275 276 277 278 279 280 281 280 280 280 280 281 282 283 282 282 285 287 288 289 291 290 291 291
268 270 271 270 269 270 271 270 271 272 273 273 274 274 274 275 275 274 274 274 276 277 278 279 280 280 280 279 279 279 278 279 281 281 280 282 284 285 286 289 288 289 292
269 270 270 269 268 268 269 269 270 271 272 272 273 274 273 273 273 273 273 274 275 275 277 278 279 280 282 281 281 280 278 277 279 281 282 282 283 284 284 285 287 288 291
Height
5879 5878 5877 5877 5877 5876 5876 5875 5874 5873 5872 5871 5869 5868 5867 5866 5864 5862 5860 5859 5857 5856 5854 5853 5852 5850 5849 5848 5848 5847 5847 5847 5846 5846 5846 5845 5845 5845 5845 5844 5844 5844 5844
5877 5876 5876 5875 5874 5874 5873 5873 5872 5871 5870 5868 5867 5866 5865 5864 5862 5860 5858 5856 5855 5853 5851 5850 5849 5848 5846 5845 5845 5844 5844 5843 5843 5842 5841 5841 5841 5841 5840 5840 5841 5840 5840
5874 5872 5873 5873 5872 5871 5871 5870 5870 5868 5867 5866 5865 5864 5863 5861 5860 5858 5856 5854 5852 5850 5849 5848 5846 5845 5843 5842 5842 5841 5840 5840 5839 5838 5838 5837 5837 5836 5836 5836 5836 5836 5836
5870 5869 5869 5869 5869 5869 5868 5868 5867 5865 5864 5863 5862 5861 5860 5859 5857 5855 5853 5851 5849 5847 5846 5844 5842 5841 5840 5839 5838 5837 5837 5836 5835 5834 5833 5833 5832 5832 5832 5832 5832 5832 5832
5868 5867 5866 5866 5866 5865 5865 5864 5863 5862 5861 5860 5859 5858 5857 5856 5854 5852 5851 5849 5847 5845 5843 5842 5840 5839 5837 5836 5835 5834 5833 5832 5831 5830 5829 5828 5828 5827 5828 5828 5829 5829 5829
5864 5863 5863 5862 5862 5862 5861 5860 5860 5859 5858 5857 5856 5855 5854 5853 5851 5850 5848 5846 5844 5842 5841 5839 5837 5836 5835 5833 5832 5830 5829 5828 5827 5826 5825 5824 5824 5824 5824 5824 5824 5825 5825
5860 5859 5859 5859 5858 5857 5856 5856 5856 5855 5855 5854 5853 5852 5851 5849 5848 5846 5844 5843 5841 5839 5837 5836 5834 5833 5831 5830 5828 5827 5825 5824 5823 5822 5821 5820 5820 5820 5820 5820 5820 5820 5821
5856 5855 5855 5855 5854 5852 5852 5852 5852 5852 5851 5850 5849 5848 5847 5846 5845 5843 5841 5839 5837 5835 5833 5832 5831 5829 5828 5826 5825 5823 5822 5820 5819 5818 5817 5817 5816 5816 5815 5815 5815 5816 5816
5851 5850 5850 5850 5849 5848 5848 5848 5848 5847 5847 5846 5845 5844 5843 5842 5841 5839 5837 5835 5833 5831 5829 5827 5826 5825 5824 5822 5821 5819 5817 5816 5815 5814 5813 5812 5812 5811 5811 5810 5810 5811 5811
5846 5845 5845 5845 5845 5844 5844 5843 5843 5842 5842 5842 5841 5840 5839 5838 5836 5835 5833 5831 5829 5827 5825 5824 5822 5821 5820 5818 5816 5815 5813 5812 5811 5809 5808 5808 5807 5807 5806 5806 5805 5805 5805
5840 5839 5839 5840 5839 5839 5839 5838 5838 5837 5837 5836 5835 5835 5834 5833 5832 5830 5829 5827 5825 5823 5820 5819 5817 5816 5815 5814 5812 5811 5809 5808 5806 5805 5804 5803 5802 5802 5801 5801 5800 5800 5799
5833 5833 5833 5833 5833 5833 5833 5832 5832 5832 5831 5830 5830 5829 5829 5828 5827 5826 5824 5822 5821 5818 5815 5813 5812 5810 5809 5808 5807 5806 5805 5803 5802 5800 5799 5798 5798 5797 5797 5796 5795 5794 5793
5827 5826 5826 5827 5827 5827 5827 5827 5826 5826 5825 5824 5824 5824 5823 5822 5821 5820 5819 5817 5815 5813 5811 5808 5806 5805 5804 5803 5802 5801 5800 5799 5797 5796 5794 5793 5793 5792 5791 5790 5789 5789 5788
5821 5820 5821 5821 5820 5820 5821 5820 5820 5819 5819 5818 5818 5817 5817 5817 5816 5815 5813 5812 5810 5808 5806 5804 5802 5800 5799 5799 5797 5796 5795 5794 5792 5791 5790 5788 5787 5786 5785 5784 5784 5783 5782
5814 5814 5814 5815 5814 5814 5814 5814 5813 5813 5813 5812 5812 5811 5811 5810 5810 5809 5807 5806 5805 5803 5801 5799 5798 5796 5795 5794 5793 5791 5790 5789 5787 5786 5785 5783 5782 5781 5780 5779 5778 5777 5776
5808 5807 5808 5808 5808 5807 5807 5807 5807 5807 5806 5806 5805 5805 5804 5804 5803 5802 5801 5800 5799 5798 5796 5795 5793 5792 5790 5789 5787 5786 5785 5783 5782 5781 5779 5778 5777 5775 5774 5773 5772 5772 5770
5801 5801 5801 5801 5801 5801 5800 5800 5800 5800 5799 5799 5799 5798 5797 5797 5797 5796 5795 5794 5793 5792 5790 5789 5788 5787 5785 5784 5782 5780 5779 5778 5776 5775 5773 5772 5771 5769 5768 5767 5767 5766 5765
5793 5793 5793 5794 5794 5794 5793 5793 5793 5793 5793 5793 5792 5792 5791 5791 5790 5790 5789 5788 5787 5785 5784 5783 5782 5780 5779 5778 5776 5775 5773 5772 5771 5769 5768 5766 5765 5763 5763 5762 5761 5761 5760
5786 5786 5786 5786 5787 5787 5786 5786 5786 5786 5786 5786 5786 5785 5784 5784 5784 5783 5782 5781 5780 5779 5777 5776 5775 5774 5773 5771 5770 5769 5768 5766 5765 5763 5761 5760 5758 5758 5757 5757 5756 5755 5754
5778 5778 5779 5779 5779 5779 5779 5779 5779 5779 5779 5779 5779 5778 5778 5777 5777 5776 5776 5775 5773 5772 5771 5770 5768 5767 5766 5765 5764 5763 5762 5761 5759 5757 5756 5754 5753 5752 5752 5751 5751 5750 5749
5770 5771 5771 5771 5772 5772 5772 5772 5772 5772 5771 5771 5771 5771 5770 5769 5769 5769 5768 5767 5766 5765 5764 5763 5762 5761 5760 5759 5758 5757 5755 5754 5753 5751 5750 5749 5747 5747 5747 5746 5745 5744 5743
5762 5763 5763 5763 5764 5764 5764 5764 5764 5764 5764 5764 5763 5763 5762 5762 5761 5761 5760 5760 5759 5758 5757 5756 5755 5754 5753 5753 5752 5750 5749 5748 5747 5746 5745 5744 5743 5742 5741 5740 5739 5738 5737
5754 5755 5755 5755 5756 5756 5756 5756 5756 5756 5756 5756 5755 5755 5755 5754 5754 5753 5753 5752 5751 5751 5750 5749 5748 5747 5746 5746 5745 5744 5743 5742 5741 5741 5740 5739 5738 5737 5736 5735 5734 5733 5732
5746 5747 5747 5747 5748 5748 5748 5748 5748 5748 5748 5748 5747 5747 5747 5747 5746 5746 5745 5745 5744 5744 5743 5742 5741 5740 5740 5739 5738 5737 5737 5736 5735 5735 5734 5733 5732 5732 5731 5730 5729 5728 5726
5738 5739 5739 5739 5740 5740 5740 5740 5740 5739 5739 5739 5739 5739 5738 5738 5739 5738 5738 5738 5737 5736 5736 5735 5734 5733 5733 5732 5731 5730 5730 5730 5729 5729 5728 5728 5727 5726 5725 5724 5723 5723 5721
5730 5730 5731 5731 5731 5731 5732 5732 5732 5732 5732 5731 5732 5731 5731 5731 5731 5731 5731 5730 5730 5730 5729 5728 5727 5727 5726 5726 5725 5724 5724 5723 5723 5722 5722 5722 5721 5720 5720 5719 5718 5717 5716